Dewpoint
60 60 60 60 60 60 59 58 55 53 54 55 55 53 53 51 52 53 50 50 50 48 46 45 44 46 44 43 42 46 47 48 48 48 47 46 46 45 44 43 42 45 47 48 45 47 46 48 48 49 49 47 46 45 43 42 45 45 45 44 45 47 47 46 42 41 43 43 40 33 38 39 30 33 34 39 40 40 38 39 40 43 40 42 42
58 58 58 60 60 59 59 58 55 52 54 54 55 52 51 50 53 51 52 50 49 46 45 47 46 45 43 41 42 42 44 45 47 47 46 47 48 48 46 42 42 44 47 45 47 46 48 45 45 47 46 44 46 38 38 38 37 37 39 43 43 45 46 44 42 43 43 43 40 37 37 41 35 32 39 41 41 39 34 35 36 36 33 38 43
57 58 59 59 59 59 59 58 57 55 54 52 55 52 52 51 49 51 51 48 49 47 46 47 45 45 45 44 41 42 43 45 47 46 47 46 46 48 48 46 45 46 45 44 41 44 46 46 46 48 47 47 47 46 44 40 36 36 40 40 44 44 43 44 44 43 44 42 44 38 40 42 44 35 34 38 38 37 35 36 35 33 33 38 38
59 59 60 60 59 59 59 58 57 57 55 52 54 54 52 51 48 49 48 49 47 48 47 45 45 45 45 44 43 43 44 47 47 44 43 44 45 46 46 47 47 46 44 41 40 44 45 45 46 46 47 47 44 44 42 43 43 40 41 43 45 44 47 47 45 46 44 42 44 36 38 41 41 35 34 35 37 38 36 36 36 36 36 36 39
58 58 59 59 60 59 59 58 58 58 57 55 55 53 53 51 50 47 49 48 48 48 46 45 45 44 47 43 44 45 46 46 46 46 47 47 45 46 46 45 47 46 46 45 49 45 46 47 45 45 47 47 47 43 43 44 39 41 40 39 40 44 46 45 45 44 45 44 44 44 43 39 37 40 38 36 37 38 37 38 37 37 40 40 39
57 58 58 57 58 58 58 58 58 58 57 56 56 54 55 54 49 49 49 46 48 49 47 45 43 42 42 42 43 44 45 45 45 46 47 49 49 49 48 48 48 46 47 47 45 47 48 47 47 47 46 49 47 47 47 44 43 43 41 40 38 43 46 45 45 46 44 43 45 45 46 43 42 41 38 39 41 39 38 39 40 40 40 42 40
57 57 57 58 57 57 57 58 58 57 57 57 57 56 55 55 54 46 48 49 48 48 47 45 46 44 42 43 43 44 44 45 46 47 47 48 50 50 51 51 50 51 49 48 46 48 49 48 49 48 48 49 49 49 48 48 49 48 45 47 42 44 45 45 43 44 44 44 44 44 43 43 45 42 37 38 38 38 40 42 42 40 43 42 41
57 57 57 57 57 57 58 58 57 57 58 57 57 57 55 55 56 53 49 50 50 48 47 48 47 45 44 43 44 45 45 45 46 47 47 49 51 52 52 53 52 52 53 51 51 51 51 51 51 50 49 49 51 50 50 50 48 48 48 46 44 44 44 44 44 43 44 45 43 42 42 41 41 43 38 40 41 41 41 43 43 42 42 42 41
56 56 56 57 58 58 58 58 58 59 59 59 60 57 57 55 55 55 54 51 51 49 49 48 48 48 46 47 45 47 48 48 46 49 50 50 52 53 53 52 54 54 54 53 53 52 52 53 52 53 52 56 50 50 51 50 49 48 50 47 46 46 45 44 45 44 44 44 43 45 41 40 40 42 42 42 42 43 44 44 43 42 40 40 38
55 55 55 56 57 56 57 58 57 59 59 58 58 58 57 57 57 56 56 53 51 49 48 49 49 49 49 50 50 53 53 54 59 51 51 54 55 54 56 56 55 56 56 56 56 55 54 54 55 57 53 50 48 46 45 46 48 54 53 51 48 47 46 46 45 45 45 44 44 43 41 42 42 45 44 44 44 44 43 43 41 39 39 39 38
53 54 54 54 55 55 56 56 56 56 57 57 57 56 55 56 57 58 57 56 54 52 51 49 50 50 50 51 52 56 56 57 47 47 48 49 55 57 56 56 56 56 56 56 56 57 58 57 56 58 54 50 50 44 44 44 45 41 40 41 43 55 48 46 46 47 46 46 44 41 41 43 43 43 43 42 44 43 41 41 40 40 37 35 33
48 50 51 53 54 53 55 54 54 55 55 55 55 55 56 56 57 58 58 59 58 57 55 53 52 52 52 53 54 56 58 52 44 45 46 46 48 60 56 56 56 56 55 54 54 57 58 58 58 58 58 56 53 51 48 43 42 39 37 37 36 36 38 46 46 47 47 45 45 45 44 44 43 44 43 45 44 42 41 41 40 37 36 34 34
40 42 43 45 48 51 53 53 53 54 54 55 55 58 57 57 57 58 58 59 60 58 56 56 56 55 53 53 54 56 58 45 44 43 44 43 41 47 55 55 55 55 55 55 55 57 58 55 58 59 59 56 57 56 50 49 40 39 38 38 38 36 34 34 36 46 47 46 46 45 44 44 44 43 47 46 44 42 41 38 38 37 36 34 32
41 41 41 40 40 41 44 48 52 54 55 55 55 56 57 57 58 58 58 58 58 58 58 58 57 57 56 55 55 57 59 47 42 43 43 41 41 43 52 53 55 55 56 57 58 58 58 56 57 57 58 57 57 54 52 50 47 44 45 45 43 43 35 34 35 35 39 44 45 45 47 46 44 45 45 44 42 41 40 38 39 37 36 35 37
41 42 42 42 42 41 40 41 43 46 49 50 52 53 56 57 58 57 57 57 57 56 56 56 57 57 56 56 57 57 58 46 42 42 42 42 42 40 53 54 57 59 58 57 55 56 56 57 57 56 56 57 55 53 53 51 49 48 47 47 45 42 42 41 42 45 44 45 46 46 47 47 46 45 45 43 41 39 38 37 37 38 37 39 39
38 40 39 39 40 41 41 41 41 41 42 47 49 49 51 55 57 58 57 57 56 55 55 56 56 56 56 57 58 59 62 41 42 43 42 41 40 52 54 55 57 57 56 56 55 54 52 52 50 51 53 53 50 45 48 52 51 49 48 48 45 44 45 35 36 37 45 47 47 46 44 43 39 42 40 36 35 35 34 34 34 34 33 32 31
35 37 38 38 38 38 39 41 41 41 41 41 41 47 50 53 56 56 56 56 56 55 55 55 54 55 54 55 55 56 60 44 41 42 41 40 42 54 55 54 55 53 54 54 52 50 52 53 51 48 50 53 45 42 43 46 51 49 48 47 46 46 44 39 36 35 35 35 34 35 35 34 34 34 33 34 37 36 32 31 31 32 30 28 29
35 32 34 34 36 36 38 37 39 41 41 41 42 45 46 48 49 55 55 55 55 55 54 54 54 54 53 54 54 54 57 48 39 41 41 40 47 55 53 54 54 53 54 52 50 51 49 46 49 51 53 52 39 41 41 47 50 49 47 47 47 45 43 41 39 39 35 34 34 34 33 33 33 34 35 35 34 34 34 32 34 32 33 33 30
33 32 33 32 32 33 35 38 39 40 41 41 44 44 43 44 45 47 51 54 55 54 54 54 54 55 56 56 56 56 57 48 39 39 40 40 46 56 56 50 46 50 49 48 50 49 49 44 41 44 49 45 37 39 40 43 49 48 48 47 46 45 44 43 43 41 40 40 39 41 39 37 39 38 39 35 35 36 37 37 36 35 34 33 33
32 33 32 33 33 32 34 36 38 39 41 42 43 43 43 43 44 45 47 47 48 51 53 54 55 55 56 57 58 58 57 54 45 39 40 40 41 54 52 45 45 48 46 47 47 48 48 45 40 36 36 36 36 36 37 37 46 47 46 45 43 44 45 45 47 44 44 43 42 42 42 41 42 41 42 41 37 37 38 39 39 37 35 33 33
33 34 33 32 31 30 31 34 36 38 39 41 42 42 42 42 42 43 44 45 46 48 54 53 53 53 54 56 57 55 53 55 47 39 40 40 40 42 55 47 47 46 46 45 46 47 45 42 40 36 35 35 35 35 36 36 38 47 46 44 45 44 42 43 43 32 37 38 39 39 38 38 38 38 37 38 39 39 39 40 38 35 34 32 30
32 31 31 29 30 32 34 34 36 38 37 37 39 40 42 42 42 43 41 42 43 49 52 53 50 50 51 52 52 52 53 51 51 38 39 40 40 38 51 48 49 46 45 45 44 45 44 42 39 37 35 35 35 35 35 35 37 41 39 32 32 34 43 42 41 38 38 38 35 33 33 30 30 33 32 32 31 33 36 37 37 36 35 34 32
32 31 31 32 33 33 35 36 36 35 37 38 38 40 40 41 42 43 44 44 43 42 48 48 44 44 46 51 46 50 51 50 45 44 36 38 38 38 38 44 42 58 46 45 45 44 44 41 37 36 34 34 34 34 34 33 34 34 32 31 31 30 31 34 35 35 32 33 34 33 31 32 33 31 30 31 33 35 35 35 35 34 34 35 34
33 34 34 34 33 32 32 33 33 34 34 35 36 37 38 39 40 41 42 42 41 41 42 45 44 43 43 42 43 44 48 48 43 43 41 37 39 39 38 38 40 50 47 44 45 43 41 39 36 34 34 34 33 33 33 33 33 32 31 32 31 31 35 36 32 35 33 31 31 32 33 31 30 30 31 34 32 33 33 33 33 34 34 34 33
34 34 34 34 34 34 34 33 33 33 33 33 33 34 36 37 37 39 40 40 40 41 41 42 42 41 40 41 39 41 42 45 47 42 38 37 37 36 36 36 35 39 51 45 45 43 36 34 34 33 33 32 32 32 32 32 32 32 32 31 34 33 35 33 33 34 31 31 30 32 30 29 30 31 34 34 33 32 33 33 34 33 33 33 33
33 34 33 34 34 32 33 33 33 33 34 32 32 30 31 32 33 36 37 38 39 40 39 38 37 39 39 40 39 40 43 46 47 46 41 40 37 35 36 36 36 36 37 37 34 34 33 33 33 32 32 33 36 34 32 32 32 32 32 34 37 35 31 31 33 33 32 29 30 28 29 29 30 33 34 34 32 28 31 31 30 31 32 31 31
33 33 33 32 33 33 34 34 34 35 35 32 31 31 29 29 31 31 34 34 37 39 39 38 37 35 35 36 38 38 43 42 44 46 46 45 43 40 39 37 35 35 35 35 34 33 33 33 32 33 33 34 34 33 33 32 33 32 32 34 36 33 32 31 30 30 29 29 28 28 28 30 32 32 32 30 30 30 31 30 30 31 31 31 30
33 33 33 33 33 33 33 32 33 32 32 32 31 30 30 30 28 28 27 30 34 38 37 40 37 36 34 34 37 38 39 39 43 45 46 46 44 42 40 40 41 39 36 35 34 33 34 34 36 37 37 35 33 31 31 32 33 32 34 33 31 29 27 30 30 29 32 30 28 28 29 32 31 30 31 29 30 30 32 31 31 31 31 31 30
34 34 34 33 34 33 34 34 32 31 32 32 32 32 31 31 31 31 32 30 36 37 42 44 39 37 49 52 46 41 39 38 41 41 45 41 42 44 43 42 41 40 37 34 35 35 34 34 35 35 34 32 30 31 32 32 32 32 35 33 33 33 32 30 32 30 29 29 28 30 30 31 32 31 31 30 31 31 31 31 31 31 31 31 30
34 34 34 33 33 33 34 33 33 33 30 28 30 33 31 33 34 32 35 37 35 35 38 47 49 48 50 48 46 45 44 51 36 37 37 38 38 39 39 39 38 38 35 34 35 34 34 34 34 32 32 31 31 31 32 30 30 30 30 26 30 28 27 26 27 27 25 26 27 28 29 29 29 30 29 30 30 31 31 31 30 31 31 30 30
33 34 33 34 33 34 33 33 33 32 32 33 33 32 33 33 33 34 35 35 35 35 35 36 38 43 47 47 47 38 37 36 37 36 36 36 36 37 37 35 34 34 34 34 33 33 33 33 33 32 32 32 32 30 29 28 27 28 27 26 27 27 25 26 25 22 23 25 28 29 29 29 28 28 28 29 30 29 30 31 30 31 31 31 30
33 33 34 34 35 34 34 34 34 34 33 33 32 31 30 31 33 35 34 35 35 36 36 36 36 36 37 41 41 46 36 37 37 37 37 36 35 35 35 34 34 34 34 34 33 33 33 33 33 32 32 31 29 27 28 28 27 27 27 26 26 25 26 25 24 25 26 27 26 27 27 28 29 28 28 29 28 29 29 30 30 30 30 30 30
35 35 35 35 34 34 34 34 34 34 34 33 34 33 31 29 30 33 37 34 35 35 36 36 36 36 35 36 36 39 38 38 37 37 37 36 35 35 34 34 34 34 33 33 33 33 34 34 33 33 31 27 27 27 28 29 27 27 26 26 24 26 26 27 26 26 24 26 27 27 27 27 27 27 28 28 29 29 30 30 30 30 30 31 30
35 35 35 35 35 34 34 35 34 34 34 34 33 33 32 33 31 31 31 36 38 36 34 35 35 35 36 36 36 35 36 35 36 36 35 35 35 34 34 34 34 33 33 34 34 33 33 33 32 30 28 28 28 27 30 29 26 27 26 27 28 28 26 24 22 23 24 26 29 27 27 27 27 27 28 28 29 29 29 29 30 30 29 30 30
35 34 33 33 35 35 34 34 34 34 34 34 33 33 34 33 33 32 31 33 36 35 35 37 35 36 38 34 35 35 35 36 35 35 35 34 34 34 33 34 31 32 33 35 34 32 31 30 30 30 28 28 28 28 27 29 27 28 27 28 27 25 21 22 22 25 27 28 29 27 26 27 29 28 27 28 28 28 28 29 30 29 30 30 31
36 36 37 37 37 38 37 35 35 34 34 34 34 33 33 33 33 33 32 31 39 40 36 36 36 34 34 34 34 35 35 35 35 34 34 34 33 33 32 31 31 31 32 31 30 29 29 30 28 29 29 29 30 28 28 28 27 27 28 27 24 23 21 21 22 26 29 30 28 26 27 27 28 27 28 28 29 29 28 29 29 29 30 31 31
37 37 38 40 39 37 36 36 36 35 34 34 34 34 33 33 33 33 34 34 34 42 39 38 37 36 35 35 34 34 34 34 34 34 33 33 32 33 33 32 31 31 31 30 29 29 28 29 30 30 30 28 28 28 29 27 28 29 27 25 23 21 20 20 24 27 27 27 26 27 28 26 27 28 27 28 28 28 29 29 29 30 30 30 31
35 35 35 36 36 35 35 37 37 34 35 35 35 34 33 32 33 33 35 35 34 36 41 37 35 35 35 34 35 34 34 33 33 33 33 32 32 32 32 31 30 30 29 29 29 29 28 29 32 31 29 29 28 28 28 30 28 27 26 26 23 20 22 20 24 28 29 28 26 26 26 27 27 27 28 28 28 28 29 29 29 29 30 30 30
37 34 34 33 33 34 35 37 37 37 36 36 35 34 33 33 33 34 35 36 37 38 37 36 36 35 35 35 34 34 33 32 31 31 31 30 31 33 31 31 29 29 29 29 30 29 29 30 30 31 29 30 28 29 29 28 27 27 26 22 19 17 19 21 25 26 26 26 26 27 26 26 27 27 27 28 28 29 29 30 30 31 31 30 30
36 39 35 34 34 34 35 34 36 36 35 35 35 36 36 35 35 36 37 37 38 36 38 36 34 35 35 35 33 34 32 29 27 26 26 28 30 33 31 30 30 29 30 29 30 30 30 29 31 29 29 30 28 27 29 28 28 24 24 18 17 18 20 24 25 26 26 27 27 26 27 27 27 28 28 29 29 29 30 30 30 30 30 30 30
36 37 34 33 34 34 34 35 34 35 35 35 37 37 37 36 36 36 36 36 37 35 35 39 38 36 35 34 33 33 32 31 33 30 30 31 34 33 32 30 30 29 29 29 30 29 29 29 29 29 28 28 29 28 27 26 24 21 19 18 18 20 22 26 27 27 27 28 27 28 28 28 28 28 28 29 30 30 30 30 30 30 30 30 30
36 35 34 33 35 35 34 34 33 34 36 35 36 37 36 37 40 39 37 36 35 30 31 38 36 35 33 33 33 33 33 33 34 34 35 37 36 34 31 30 29 29 29 29 28 29 28 29 28 28 26 26 27 26 25 25 20 18 18 18 20 23 24 26 27 28 28 27 28 29 29 28 28 28 28 30 29 29 29 30 30 30 30 30 30
37 35 35 35 34 35 34 33 35 37 38 38 38 36 36 37 40 39 39 34 34 31 35 35 33 33 32 32 33 32 34 36 33 36 34 36 36 32 30 29 29 28 28 28 27 28 26 25 26 26 26 26 26 23 21 20 19 19 19 21 23 23 26 26 27 27 28 28 28 29 29 28 27 27 27 28 29 29 30 30 31 30 30 30 30
35 35 34 35 35 37 37 38 38 37 37 34 36 34 35 36 33 34 33 33 33 33 33 33 32 32 31 31 31 32 35 37 37 38 35 33 36 32 30 29 29 29 28 27 26 26 26 26 27 27 28 26 25 25 22 21 21 20 20 21 23 24 25 26 26 27 27 28 28 29 28 28 28 27 28 29 30 30 30 30 30 30 30 30 31
35 35 34 33 35 38 39 38 36 40 34 35 38 35 34 33 32 31 30 30 30 31 32 32 31 30 29 29 29 30 32 32 32 32 33 34 33 32 31 30 30 29 28 26 28 28 29 28 28 27 26 24 24 24 24 24 26 23 22 23 23 23 24 25 26 27 27 28 28 28 28 28 29 28 29 29 30 30 29 30 30 30 30 30 30
34 34 34 33 33 33 33 35 35 39 39 38 37 36 35 34 34 32 31 31 31 30 30 30 30 29 29 29 31 31 30 31 32 33 33 33 33 32 31 30 30 30 29 27 28 29 28 28 27 25 24 24 24 23 26 26 25 26 26 26 25 25 26 27 27 27 28 28 28 28 29 29 29 29 29 29 29 29 29 29 30 30 30 30 31
34 33 33 33 33 33 33 33 32 33 33 32 32 33 33 34 38 35 34 34 32 30 30 33 30 30 31 31 31 32 31 30 31 31 31 32 32 31 30 31 30 30 30 31 31 29 29 27 26 24 24 23 24 26 25 23 26 24 26 25 26 27 27 26 27 28 28 28 28 28 29 29 29 28 29 29 29 28 29 28 29 31 30 30 31
33 33 32 33 33 32 33 33 32 32 32 32 31 31 31 32 33 35 38 37 33 30 30 31 31 30 30 31 31 31 31 30 29 31 30 30 30 30 32 31 30 29 29 28 29 29 28 27 26 25 24 24 24 24 25 26 25 24 25 27 27 26 26 26 27 28 28 28 28 28 29 29 29 30 30 30 30 28 28 28 29 29 30 30 30
33 33 33 33 32 33 32 32 32 32 32 32 32 31 31 31 31 31 31 31 31 31 31 31 31 30 30 31 31 31 31 31 30 30 30 30 30 30 31 31 31 30 29 29 29 29 29 28 27 25 24 24 24 25 25 27 26 27 27 28 27 26 26 26 26 27 27 28 28 28 29 30 30 30 30 30 29 29 28 29 29 29 30 31 30
33 33 33 33 33 32 32 32 32 32 32 32 32 32 31 32 31 31 31 31 30 31 30 30 30 30 30 30 30 31 30 30 30 31 30 30 30 31 31 31 31 30 29 29 29 29 29 30 29 28 26 25 25 26 25 26 27 27 27 27 27 26 25 25 26 26 26 27 28 28 29 30 30 30 29 29 30 30 29 28 28 29 30 30 30
33 33 33 33 33 33 33 32 32 32 32 32 31 32 32 32 32 32 31 31 31 31 31 31 31 31 32 32 32 32 32 32 33 32 32 31 31 31 31 31 30 31 30 29 29 28 29 29 28 28 26 26 26 25 26 27 25 25 26 26 26 25 25 25 25 26 26 27 28 28 29 29 30 30 30 30 29 28 28 28 28 28 29 29 29